When you browse on this site, cookies collect data to enhance your experience and personalize the content and advertising you see.
Visit our Privacy Policy to learn more. By continuing to use the site, you agree to this use of cookies and data.
  • In Hungary
  • List of Countries
  • For 7 days
  • Water Temperature
  • Satellite Maps
  • Weather Map
  • News
  • Weather Widgets
  • user-avatar
    Login

    Hourly Weather Tarija

    Today, 20 April, Saturday

    Time Temperature Precipitation Wind Pressure Humidity
    00:00 +20°C° 0 mm 1 mps 597 mmHg 92%
    01:00 +18°C° 0 mm 0 mps 597 mmHg 92%
    02:00 +17°C° 0 mm 0 mps 596 mmHg 94%
    03:00 +17°C° 0.1 mm 0 mps 596 mmHg 94%
    04:00 +16°C° 0.1 mm 0 mps 596 mmHg 94%
    05:00 +16°C° 0.1 mm 0 mps 596 mmHg 94%
    06:00 +17°C° 0 mm 0 mps 597 mmHg 88%
    07:00 +18°C° 0 mm 0 mps 597 mmHg 83%
    08:00 +20°C° 0 mm 0 mps 598 mmHg 77%
    09:00 +23°C° 0.1 mm 1 mps 599 mmHg 70%
    10:00 +25°C° 0.1 mm 2 mps 599 mmHg 62%
    11:00 +26°C° 0.1 mm 2 mps 600 mmHg 54%
    12:00 +27°C° 0.3 mm 3 mps 599 mmHg 55%
    13:00 +27°C° 0.3 mm 3 mps 599 mmHg 55%
    14:00 +28°C° 0.3 mm 4 mps 598 mmHg 55%
    15:00 +26°C° 0.6 mm 4 mps 598 mmHg 63%
    16:00 +25°C° 0.6 mm 3 mps 597 mmHg 70%
    17:00 +24°C° 0.6 mm 3 mps 596 mmHg 78%
    18:00 +22°C° 0.2 mm 3 mps 596 mmHg 83%
    19:00 +21°C° 0.2 mm 2 mps 597 mmHg 87%
    20:00 +20°C° 0.2 mm 2 mps 597 mmHg 92%
    21:00 +20°C° 0.4 mm 2 mps 597 mmHg 92%
    22:00 +21°C° 0.4 mm 1 mps 598 mmHg 91%
    23:00 +21°C° 0.4 mm 1 mps 598 mmHg 91%

    Tomorrow, 21 April, Sunday

    Time Temperature Precipitation Wind Pressure Humidity
    00:00 +21°C° 0.1 mm 1 mps 598 mmHg 92%
    01:00 +20°C° 0.1 mm 1 mps 597 mmHg 93%
    02:00 +18°C° 0.1 mm 0 mps 597 mmHg 94%
    03:00 +18°C° 0 mm 0 mps 597 mmHg 94%
    04:00 +17°C° 0 mm 0 mps 597 mmHg 94%
    05:00 +17°C° 0 mm 0 mps 596 mmHg 94%
    06:00 +19°C° 0 mm 1 mps 597 mmHg 91%
    07:00 +20°C° 0 mm 1 mps 598 mmHg 88%
    08:00 +21°C° 0 mm 1 mps 598 mmHg 85%
    09:00 +20°C° 0.1 mm 2 mps 598 mmHg 81%
    10:00 +21°C° 0.1 mm 2 mps 599 mmHg 77%
    11:00 +23°C° 0.1 mm 2 mps 599 mmHg 74%
    12:00 +22°C° 0.1 mm 3 mps 598 mmHg 73%
    13:00 +24°C° 0.1 mm 3 mps 597 mmHg 72%
    14:00 +24°C° 0.1 mm 3 mps 597 mmHg 72%
    15:00 +22°C° 0.3 mm 3 mps 596 mmHg 78%
    16:00 +21°C° 0.3 mm 3 mps 595 mmHg 85%
    17:00 +20°C° 0.3 mm 3 mps 595 mmHg 91%
    18:00 +20°C° 0.3 mm 3 mps 596 mmHg 92%
    19:00 +19°C° 0.3 mm 3 mps 596 mmHg 92%
    20:00 +19°C° 0.3 mm 2 mps 597 mmHg 92%
    21:00 +18°C° 0.5 mm 2 mps 597 mmHg 92%
    22:00 +18°C° 0.5 mm 2 mps 598 mmHg 92%
    23:00 +18°C° 0.5 mm 2 mps 598 mmHg 92%

    Day after tomorrow, 22 April, Monday

    Time Temperature Precipitation Wind Pressure Humidity
    00:00 +18°C° 0.1 mm 2 mps 598 mmHg 93%
    01:00 +19°C° 0.1 mm 1 mps 598 mmHg 93%
    02:00 +19°C° 0.1 mm 1 mps 597 mmHg 93%
    03:00 +18°C° 0 mm 1 mps 597 mmHg 94%
    04:00 +18°C° 0 mm 1 mps 597 mmHg 94%
    05:00 +18°C° 0 mm 1 mps 597 mmHg 95%
    06:00 +18°C° 0 mm 1 mps 597 mmHg 94%
    07:00 +18°C° 0 mm 1 mps 597 mmHg 92%
    08:00 +18°C° 0 mm 1 mps 598 mmHg 91%
    09:00 +18°C° 0.1 mm 2 mps 598 mmHg 88%
    10:00 +19°C° 0.1 mm 2 mps 598 mmHg 85%
    11:00 +19°C° 0.1 mm 3 mps 599 mmHg 82%
    12:00 +19°C° 0.1 mm 3 mps 598 mmHg 83%
    13:00 +19°C° 0.1 mm 3 mps 597 mmHg 84%
    14:00 +19°C° 0.1 mm 3 mps 596 mmHg 84%
    15:00 +18°C° 0.1 mm 3 mps 596 mmHg 86%
    16:00 +18°C° 0.1 mm 3 mps 595 mmHg 88%
    17:00 +18°C° 0.1 mm 3 mps 595 mmHg 90%
    18:00 +17°C° 0.1 mm 3 mps 595 mmHg 90%
    19:00 +17°C° 0.1 mm 3 mps 596 mmHg 91%
    20:00 +16°C° 0.1 mm 2 mps 597 mmHg 91%
    21:00 +16°C° 0.1 mm 2 mps 597 mmHg 92%
    22:00 +16°C° 0.1 mm 2 mps 598 mmHg 93%
    23:00 +16°C° 0.1 mm 2 mps 598 mmHg 93%

    23 April, Tuesday

    Time Temperature Precipitation Wind Pressure Humidity
    00:00 +16°C° 0.1 mm 2 mps 598 mmHg 93%
    01:00 +15°C° 0.1 mm 2 mps 598 mmHg 93%
    02:00 +15°C° 0.1 mm 1 mps 598 mmHg 92%
    03:00 +15°C° 0 mm 1 mps 598 mmHg 92%
    04:00 +15°C° 0 mm 1 mps 598 mmHg 93%
    05:00 +15°C° 0 mm 1 mps 598 mmHg 93%
    06:00 +15°C° 0 mm 1 mps 598 mmHg 91%
    07:00 +16°C° 0 mm 2 mps 599 mmHg 88%
    08:00 +16°C° 0 mm 2 mps 599 mmHg 86%
    09:00 +17°C° 0 mm 2 mps 599 mmHg 82%
    10:00 +18°C° 0 mm 3 mps 600 mmHg 78%
    11:00 +19°C° 0 mm 3 mps 600 mmHg 74%
    12:00 +19°C° 0.1 mm 3 mps 599 mmHg 77%
    13:00 +18°C° 0.1 mm 3 mps 597 mmHg 80%
    14:00 +18°C° 0.1 mm 3 mps 596 mmHg 82%
    15:00 +17°C° 0.1 mm 3 mps 596 mmHg 84%
    16:00 +17°C° 0.1 mm 3 mps 596 mmHg 85%
    17:00 +16°C° 0.1 mm 3 mps 595 mmHg 87%
    18:00 +16°C° 0.1 mm 3 mps 596 mmHg 88%
    19:00 +16°C° 0.1 mm 2 mps 596 mmHg 90%
    20:00 +15°C° 0.1 mm 2 mps 597 mmHg 92%
    21:00 +15°C° 0.1 mm 2 mps 597 mmHg 91%
    22:00 +15°C° 0.1 mm 2 mps 597 mmHg 91%
    23:00 +15°C° 0.1 mm 2 mps 598 mmHg 91%

    24 April, Wednesday

    Time Temperature Precipitation Wind Pressure Humidity
    00:00 +15°C° 0.2 mm 2 mps 598 mmHg 91%
    01:00 +15°C° 0.2 mm 2 mps 598 mmHg 92%
    02:00 +15°C° 0.2 mm 2 mps 597 mmHg 92%
    03:00 +15°C° 0.4 mm 2 mps 597 mmHg 92%
    04:00 +15°C° 0.4 mm 2 mps 597 mmHg 93%
    05:00 +15°C° 0.4 mm 2 mps 597 mmHg 93%
    06:00 +15°C° 0.2 mm 2 mps 598 mmHg 92%
    07:00 +15°C° 0.2 mm 2 mps 598 mmHg 91%
    08:00 +15°C° 0.2 mm 2 mps 599 mmHg 89%
    09:00 +16°C° 0 mm 2 mps 599 mmHg 85%
    10:00 +17°C° 0 mm 3 mps 599 mmHg 81%
    11:00 +18°C° 0 mm 3 mps 599 mmHg 77%
    12:00 +19°C° 0 mm 3 mps 599 mmHg 76%
    13:00 +19°C° 0 mm 3 mps 598 mmHg 75%
    14:00 +20°C° 0 mm 4 mps 597 mmHg 73%
    15:00 +19°C° 0.1 mm 4 mps 597 mmHg 79%
    16:00 +18°C° 0.1 mm 3 mps 596 mmHg 85%
    17:00 +17°C° 0.1 mm 3 mps 596 mmHg 91%
    18:00 +16°C° 0.1 mm 3 mps 597 mmHg 91%
    19:00 +16°C° 0.1 mm 2 mps 597 mmHg 91%
    20:00 +16°C° 0.1 mm 2 mps 598 mmHg 91%
    21:00 +16°C° 0.1 mm 2 mps 598 mmHg 92%
    22:00 +16°C° 0.1 mm 2 mps 599 mmHg 92%
    23:00 +15°C° 0.1 mm 2 mps 599 mmHg 93%

    25 April, Thursday

    Time Temperature Precipitation Wind Pressure Humidity
    00:00 +15°C° 0.1 mm 2 mps 599 mmHg 93%
    01:00 +15°C° 0.1 mm 2 mps 599 mmHg 94%
    02:00 +15°C° 0.1 mm 2 mps 599 mmHg 94%
    03:00 +15°C° 0 mm 2 mps 598 mmHg 94%
    04:00 +15°C° 0 mm 2 mps 598 mmHg 94%
    05:00 +15°C° 0 mm 2 mps 598 mmHg 94%
    06:00 +15°C° 0.1 mm 2 mps 599 mmHg 93%
    07:00 +15°C° 0.1 mm 2 mps 599 mmHg 91%
    08:00 +16°C° 0.1 mm 3 mps 599 mmHg 90%
    09:00 +16°C° 0.1 mm 3 mps 600 mmHg 87%
    10:00 +17°C° 0.1 mm 3 mps 600 mmHg 83%
    11:00 +18°C° 0.1 mm 4 mps 600 mmHg 80%
    12:00 +18°C° 0.1 mm 4 mps 599 mmHg 78%
    13:00 +19°C° 0.1 mm 4 mps 598 mmHg 76%
    14:00 +19°C° 0.1 mm 4 mps 598 mmHg 75%
    15:00 +19°C° 0.1 mm 4 mps 597 mmHg 77%
    16:00 +18°C° 0.1 mm 4 mps 597 mmHg 79%
    17:00 +18°C° 0.1 mm 3 mps 596 mmHg 81%
    18:00 +17°C° 0 mm 3 mps 596 mmHg 84%
    19:00 +17°C° 0 mm 3 mps 597 mmHg 88%
    20:00 +16°C° 0 mm 2 mps 597 mmHg 91%
    21:00 +16°C° 0.1 mm 2 mps 598 mmHg 91%
    22:00 +16°C° 0.1 mm 2 mps 598 mmHg 91%
    23:00 +16°C° 0.1 mm 2 mps 598 mmHg 91%
    Show more